Location: Gaspur (historical)
(33.7814°N, 118.2212°W)
Time: 07:47:30
(UTC+00:00)

ALOS - Pass Details

Date: 29 October 2020
Orbit: 683 x 685 km, 97.9° (Epoch: 27 November)

Event Time Altitude Azimuth Distance (km) Brightness Sun altitude
Rises 12:21:23 0° 13° (NNE) 3,051 5.8 -23.1°
Reaches altitude 10° 12:23:38 10° 14° (NNE) 2,132 4.9 -22.6°
Maximum altitude 12:28:18 82° 101° (E) 694 2.2 -21.6°
Drops below altitude 10° 12:32:57 10° 190° (S) 2,119 4.7 -20.7°
Sets 12:35:10 0° 191° (SSW) 3,031 5.5 -20.2°
